(413022) = 2000 SN250 = 2005 UA143

Discovered at Socorro on 2000-09-24 by LINEAR.

Orbit

Orbit type: Main Belt

Note: WebGL enabled browser required.

epoch2023-09-13.0
epoch JD2460200.5
perihelion date2019-03-13.41119
perihelion JD2458555.91119
argument of perihelion (°)112.91236
ascending node (°)239.05125
inclination (°)1.70724
eccentricity0.1951057
perihelion distance (AU)2.2395948
Tisserand w.r.t. Jupiter3.3
ΔV w.r.t. Earth (km/sec)9.5
semimajor axis (AU)2.7824705
mean anomaly (°)349.23304
mean daily motion (°/day)0.21235280
aphelion distance (AU)3.325
period (years)4.64
P-vector [x]0.98982883
P-vector [y]-0.13898862
P-vector [z]-0.03034893
Q-vector [x]0.13995017
Q-vector [y]0.91300415
Q-vector [z]0.38319366
absolute magnitude17.27
phase slope0.15
uncertainty0
referenceMPEC 2023-X152
observations used196
oppositions9
arc length (days)8474
first opposition used2000
last opposition used2023
residual rms (arc-secs)0.76
perturbers coarse indicatorM-v
perturbers precise indicator003Ek
first observation date used2000-09-24.0
last observation date used2023-12-07.0
computer nameMPCLINUX
Minimum Orbit Intersection Distances (in AU)
for orbit epoch: 2460200.5, reference: E2023-XF2
Mercury1.86477
Venus1.51655
Earth1.2341
Mars0.8557
Jupiter2.10767
Saturn6.01215
Uranus15.1269
Neptune27.1967

Observations

198 total observations over interval: 2000 09 24.33398 – 2023 12 07.101883
These data are available for download (format description).

Date (UT) J2000 RA J2000 Dec Magn Location Ref
2000 09 24.33398 00 22 03.97 +05 07 12.2 19.1   704 – Lincoln Laboratory ETS, New Mexico MPS 20193
2000 09 24.34887 00 22 03.28 +05 07 06.7 20.0   704 – Lincoln Laboratory ETS, New Mexico MPS 20193
2000 09 24.36411 00 22 02.55 +05 07 01.2 19.9   704 – Lincoln Laboratory ETS, New Mexico MPS 20193
2000 09 24.39406 00 22 01.03 +05 06 51.0 19.9   704 – Lincoln Laboratory ETS, New Mexico MPS 20193
2000 10 02.30139 00 15 55.62 +04 21 58.2 19.6   704 – Lincoln Laboratory ETS, New Mexico MPS 20193
2000 10 02.31697 00 15 54.94 +04 21 53.8 20.0   704 – Lincoln Laboratory ETS, New Mexico MPS 20193
2000 10 02.34864 00 15 53.47 +04 21 43.0 20.1   704 – Lincoln Laboratory ETS, New Mexico MPS 20193
2000 10 02.36425 00 15 52.66 +04 21 37.2 19.8   704 – Lincoln Laboratory ETS, New Mexico MPS 20193
2000 10 03.24920 00 15 12.85 +04 16 31.8 19.4   704 – Lincoln Laboratory ETS, New Mexico MPS 20193
2000 10 03.28035 00 15 11.45 +04 16 21.4 19.9   704 – Lincoln Laboratory ETS, New Mexico MPS 20193
2000 10 03.32228 00 15 09.46 +04 16 07.0 19.5   704 – Lincoln Laboratory ETS, New Mexico MPS 20193
2005 10 25.40704 04 17 52.80 +21 40 37.1 20.8 V G96 – Mt. Lemmon Survey MPS 147975
2005 10 25.41240 04 17 52.58 +21 40 36.6 20.6 V G96 – Mt. Lemmon Survey MPS 147975
2005 10 25.41780 04 17 52.40 +21 40 35.7 20.8 V G96 – Mt. Lemmon Survey MPS 147975
2005 10 25.42315 04 17 52.22 +21 40 35.3 20.9 V G96 – Mt. Lemmon Survey MPS 147975
2005 10 27.43082 04 16 41.09 +21 36 18.6 21.0 V 691 – Steward Observatory, Kitt Peak-Spacewatch MPS 147975
2005 10 27.44842 04 16 40.35 +21 36 16.2 21.0 V 691 – Steward Observatory, Kitt Peak-Spacewatch MPS 147975
2005 10 27.46595 04 16 39.71 +21 36 14.2 21.1 V 691 – Steward Observatory, Kitt Peak-Spacewatch MPS 147975
2005 10 31.40899 04 14 01.40 +21 26 51.8 20.9 V 691 – Steward Observatory, Kitt Peak-Spacewatch MPS 147975
2005 10 31.42647 04 14 00.60 +21 26 48.7 21.2 V 691 – Steward Observatory, Kitt Peak-Spacewatch MPS 147975
2005 10 31.44400 04 13 59.74 +21 26 46.3 21.3 V 691 – Steward Observatory, Kitt Peak-Spacewatch MPS 147975
2005 11 01.41673 04 13 17.19 +21 24 16.3 20.9 V 691 – Steward Observatory, Kitt Peak-Spacewatch MPS 147975
2005 11 01.43423 04 13 16.36 +21 24 13.3 20.8 V 691 – Steward Observatory, Kitt Peak-Spacewatch MPS 147975
2005 11 01.45171 04 13 15.57 +21 24 10.7 20.7 V 691 – Steward Observatory, Kitt Peak-Spacewatch MPS 147975
2005 11 12.31073 04 04 04.81 +20 51 41.4 20.7 V 691 – Steward Observatory, Kitt Peak-Spacewatch MPS 150891
2005 11 12.32803 04 04 03.83 +20 51 37.4 20.5 V 691 – Steward Observatory, Kitt Peak-Spacewatch MPS 150891
2005 11 12.34545 04 04 02.82 +20 51 34.2 20.6 V 691 – Steward Observatory, Kitt Peak-Spacewatch MPS 150891
2005 11 21.13835 03 55 39.34 +20 20 45.1 20.7 V 691 – Steward Observatory, Kitt Peak-Spacewatch MPS 150891
2005 11 21.15571 03 55 38.32 +20 20 41.8 20.4 V 691 – Steward Observatory, Kitt Peak-Spacewatch MPS 150891
2005 11 21.17307 03 55 37.28 +20 20 38.0 20.7 V 691 – Steward Observatory, Kitt Peak-Spacewatch MPS 150891
2005 11 25.34787 03 51 36.03 +20 05 22.0 20.2 V G96 – Mt. Lemmon Survey MPS 151821
2005 11 25.35515 03 51 35.60 +20 05 20.4 20.0 V G96 – Mt. Lemmon Survey MPS 151821
2005 11 25.36244 03 51 35.17 +20 05 18.6 20.1 V G96 – Mt. Lemmon Survey MPS 151821
2005 11 25.36973 03 51 34.74 +20 05 17.1 20.2 V G96 – Mt. Lemmon Survey MPS 151821
2005 12 04.27140 03 43 30.64 +19 33 17.6 20.6 V G96 – Mt. Lemmon Survey MPS 153399
2005 12 04.27808 03 43 30.28 +19 33 16.4 20.4 V G96 – Mt. Lemmon Survey MPS 153399
2005 12 04.28472 03 43 29.96 +19 33 15.4 20.5 V G96 – Mt. Lemmon Survey MPS 153399
2005 12 04.29135 03 43 29.60 +19 33 13.7 20.5 V G96 – Mt. Lemmon Survey MPS 153399
2009 07 27.22912 21 29 39.98 -11 48 08.2 20.4 V 691 – Steward Observatory, Kitt Peak-Spacewatch MPS 290111
2009 07 27.25374 21 29 38.95 -11 48 12.0 20.6 V 691 – Steward Observatory, Kitt Peak-Spacewatch MPS 290111
2009 07 27.27145 21 29 38.15 -11 48 14.9 20.3 V 691 – Steward Observatory, Kitt Peak-Spacewatch MPS 290111
2013 06 01.36863 15 40 27.227 -19 27 33.67 21.5 w F51 – Pan-STARRS 1, Haleakala MPS 469108
2013 06 01.38344 15 40 26.428 -19 27 30.49 21.4 w F51 – Pan-STARRS 1, Haleakala MPS 469108
2013 06 01.39825 15 40 25.630 -19 27 27.72 21.4 w F51 – Pan-STARRS 1, Haleakala MPS 469108
2014 09 14.34060 01 32 13.02 +11 54 27.6 20.5 V 691 – Steward Observatory, Kitt Peak-Spacewatch MPS 531450
2014 09 14.36093 01 32 12.55 +11 54 24.9 20.6 V 691 – Steward Observatory, Kitt Peak-Spacewatch MPS 531450
2014 09 14.38128 01 32 12.02 +11 54 22.0 20.5 V 691 – Steward Observatory, Kitt Peak-Spacewatch MPS 531450
2014 09 19.41807 01 29 57.348 +11 40 45.79 20.4 w F51 – Pan-STARRS 1, Haleakala MPS 533156
2014 09 19.42923 01 29 56.975 +11 40 43.74 20.3 w F51 – Pan-STARRS 1, Haleakala MPS 533156
2014 09 19.44038 01 29 56.616 +11 40 41.58 20.3 w F51 – Pan-STARRS 1, Haleakala MPS 533156
2014 09 19.45160 01 29 56.244 +11 40 39.50 20.3 w F51 – Pan-STARRS 1, Haleakala MPS 533156
2014 09 22.28057 01 28 23.94 +11 31 04.0 20.4 V 691 – Steward Observatory, Kitt Peak-Spacewatch MPS 533156
2014 09 22.30095 01 28 23.22 +11 30 59.5 20.5 V 691 – Steward Observatory, Kitt Peak-Spacewatch MPS 533156
2014 09 22.32130 01 28 22.42 +11 30 55.7 20.4 V 691 – Steward Observatory, Kitt Peak-Spacewatch MPS 533156
2014 09 23.41559 01 27 43.889 +11 26 52.45 20.3 w F51 – Pan-STARRS 1, Haleakala MPS 533156
2014 09 23.42652 01 27 43.451 +11 26 49.96 20.3 w F51 – Pan-STARRS 1, Haleakala MPS 533156
2014 09 23.43737 01 27 43.039 +11 26 47.50 20.4 w F51 – Pan-STARRS 1, Haleakala MPS 533156
2014 09 23.44825 01 27 42.618 +11 26 45.16 20.3 w F51 – Pan-STARRS 1, Haleakala MPS 533156
2014 09 25.37508 01 26 30.60 +11 19 07.5 20.1 V 703 – Catalina Sky Survey MPS 533156
2014 09 25.39117 01 26 30.06 +11 19 04.2 19.5 V 703 – Catalina Sky Survey MPS 533156
2014 09 25.40726 01 26 29.37 +11 19 00.1 20.1 V 703 – Catalina Sky Survey MPS 533156
2014 09 25.42338 01 26 28.71 +11 18 55.4 20.1 V 703 – Catalina Sky Survey MPS 533156
2014 09 26.27057 01 25 55.92 +11 15 24.1 19.9 R 850 – Cordell-Lorenz Observatory, Sewanee MPS 533156
2014 09 26.28565 01 25 55.22 +11 15 19.8 19.2 R 850 – Cordell-Lorenz Observatory, Sewanee MPS 533156
2014 09 26.29914 01 25 54.77 +11 15 16.8 19.4 R 850 – Cordell-Lorenz Observatory, Sewanee MPS 533156
2014 09 26.34099 01 25 53.12 +11 15 06.2 20.2 V G96 – Mt. Lemmon Survey MPS 536568
2014 09 26.34424 01 25 52.95 +11 15 05.4 20.1 V G96 – Mt. Lemmon Survey MPS 536568
2014 09 26.34749 01 25 52.83 +11 15 04.5 20.0 V G96 – Mt. Lemmon Survey MPS 536568
2014 09 26.35074 01 25 52.70 +11 15 03.4 20.1 V G96 – Mt. Lemmon Survey MPS 536568
2014 09 29.52116 01 23 42.107 +11 00 58.12 20.1 w F51 – Pan-STARRS 1, Haleakala MPS 536568
2014 09 29.53259 01 23 41.588 +11 00 54.93 20.2 w F51 – Pan-STARRS 1, Haleakala MPS 536568
2014 09 29.54405 01 23 41.072 +11 00 51.81 20.0 w F51 – Pan-STARRS 1, Haleakala MPS 536568
2014 09 29.55548 01 23 40.551 +11 00 48.36 20.0 w F51 – Pan-STARRS 1, Haleakala MPS 536568
2014 09 30.26884 01 23 10.24 +10 57 26.2 20.1 V 691 – Steward Observatory, Kitt Peak-Spacewatch MPS 536568
2014 09 30.28915 01 23 09.34 +10 57 20.5 20.0 V 691 – Steward Observatory, Kitt Peak-Spacewatch MPS 536568
2014 09 30.30944 01 23 08.38 +10 57 14.4 20.0 V 691 – Steward Observatory, Kitt Peak-Spacewatch MPS 536568
2014 10 04.28133 01 20 10.38 +10 37 28.6 20.0 V 691 – Steward Observatory, Kitt Peak-Spacewatch MPS 536568
2014 10 04.30168 01 20 09.39 +10 37 22.6 20.1 V 691 – Steward Observatory, Kitt Peak-Spacewatch MPS 536568
2014 10 04.32200 01 20 08.40 +10 37 16.3 20.2 V 691 – Steward Observatory, Kitt Peak-Spacewatch MPS 536568
2014 10 12.21948 01 13 52.67 +09 54 01.9 19.5 V G96 – Mt. Lemmon Survey MPS 538870
2014 10 12.23043 01 13 52.11 +09 53 58.1 19.6 V G96 – Mt. Lemmon Survey MPS 538870
2014 10 12.24137 01 13 51.57 +09 53 54.4 19.3 V G96 – Mt. Lemmon Survey MPS 538870
2014 10 12.25232 01 13 51.00 +09 53 51.0 19.5 V G96 – Mt. Lemmon Survey MPS 538870
2014 10 18.19784 01 09 06.84 +09 19 44.5 20.5 V 703 – Catalina Sky Survey MPS 540460
2014 10 18.22237 01 09 05.49 +09 19 35.4 19.9 V 703 – Catalina Sky Survey MPS 540460
2014 10 18.23462 01 09 04.93 +09 19 29.9 19.9 V 703 – Catalina Sky Survey MPS 540460
2014 10 20.23897 01 07 31.92 +09 08 02.4 19.6 V G96 – Mt. Lemmon Survey MPS 540460
2014 10 20.24355 01 07 31.71 +09 08 01.4 19.5 V G96 – Mt. Lemmon Survey MPS 540460
2014 10 20.24814 01 07 31.49 +09 07 59.2 19.4 V G96 – Mt. Lemmon Survey MPS 540460
